ATLAS 5 CENTAUR DEB, 44648

Orbit data source: Space-Track

ATLAS 5 CENTAUR DEB, 44648 is space debris in HEO originally from a launch on Wed, 17 Oct 2018 UTC launched from the Air Force Eastern Test Range (AFETR). Debris objects in space refer to the collection of defunct objects orbiting the Earth. Examples of debris include non-operational satellites, rocket bodies, and fragments generated from explosions, collisions, or faulty payload assembly.

Loading next visibility...
ATLAS 5 CENTAUR DEB details
Identifier
44648, 2018-079J
Orbit
HEO
Last TLE update2 weeks ago
Origin
Flag of USULA (US)
ManufacturerULA Decatur
MissionSpacecraft
Bus & MotorUnknown
MassUnknown
Launch date (UTC)
2018-10-17 (6 years ago)
Launch vehicleUnknown
Launch site
Air Force Eastern Test Range (AFETR)
Object type
Payload
Rocket body
Debris
Shape & HBRUnknown
Radar Cross SectionRCS unknown

Expand to show TLE details & history

TLE from 2 weeks ago
0 ATLAS 5 CENTAUR DEB
1 44648U 18079J   24335.78993548 -.00000072  00000-0  00000+0 0  9990
2 44648  12.5568  74.8005 4469108 245.8301  61.7756  1.92373458 42868
Epoch: 2024-11-30T18:57Z
Definitive object data (Epoch: 2024-11-30T18:57:30.425Z)
Latitude0.00002°
Longitude80.16681°
Altitude20,379.333 km
Speed3.898 km/s
True Right ascension04h 58m 43s
True Declination0° 00' 00"
Sunlit
Object was in daylight at TLE epoch
Visualization TLE readout
Latitude12.46395°
Longitude161.17363°
Altitude32,146.088 km
Speed2.47 km/s
Apparent Right ascension10h 10m 40s
Apparent Declination5° 45' 05"
Sunlit
Object is in daylight
Visualization observer readout
Local Sidereal Time20:35:11
Azimuth328.643° NNW
Elevation-39.313°
Doppler factor1
Orbital elements
Apogee altitude33,138.537 km
Perigee altitude8,727.318 km
Semi-major axis27,311.064 km
Eccentricity0.4469108
Inclination12.5568°
RAAN74.8005°
Arg. of periapsis245.8301°
True anomaly114.15421°
Mean anomaly61.7756°
Eccentric anomaly87.35441°
Mean motion0.48088 °/min
BSTARUnknown
Orbital period748.63 mins
Loading maneuver chart data...

ATLAS 5 CENTAUR DEB Visibility forecast

Observer location: undefined°, undefined

Span
Click to sort rows by Start time (UTC) header in descending order
Start Az.
Max El. time (UTC)
Max El. Az.
Max El.
End time (UTC)
End Az.
652 mins2024-12-12 03:51:13.114Z211.812° SW2024-12-12 11:15:13.114Z144.025° SSE38.294°2024-12-12 14:43:13.114Z116.46° SE
|